Location: Newark
(44.3681°N, 100.3364°W)
Time: 04:11:39
(UTC+00:00)

SR - Pass Details

Date: 05 March 2020
Orbit: 578 x 878 km, 66.7° (Epoch: 04 April)

Event Time Altitude Azimuth Distance (km) Brightness Sun altitude
Rises 01:42:03 0° 335° (NNW) 3,323 ? -12.9°
Reaches altitude 10° 01:46:05 10° 3° (N) 2,317 ? -13.6°
Maximum altitude 01:48:24 13° 29° (NNE) 2,082 ? -14.1°
Enters shadow 01:50:09 11° 50° (NE) 2,162 ? -14.4°
